This is the latest recevied weather packets stored in our database for station/object N2OCK. If no packets are shown the sender has not sent any weather packets the latest 1 day(s).
| Time | Temp. | Humidity | Pressure | Rain* | Wind** | Luminosity | Snow |
|---|---|---|---|---|---|---|---|
| 1778066647 | 15° C | 89% | 1011 hPa | 0 mm | - | 71 W/m² | - |
| 1778066344 | 15° C | 90% | 1011.2 hPa | 0 mm | - | 105 W/m² | - |
| 1778065133 | 13.89° C | 93% | 1011.3 hPa | 0 mm | - | 70 W/m² | - |
| 1778064225 | 13.89° C | 93% | 1011 hPa | 0 mm | - | 30 W/m² | - |
| 1778062407 | 13.33° C | 94% | 1010.9 hPa | 0 mm | - | 21 W/m² | - |
| 1778061804 | 13.33° C | 94% | 1011.2 hPa | 0 mm | - | 11 W/m² | - |
| 1778061502 | 13.33° C | 94% | 1011 hPa | 0 mm | - | 8 W/m² | - |
| 1778060594 | 13.33° C | 94% | 1011 hPa | 0 mm | - | 2 W/m² | - |
| 1778060292 | 13.33° C | 94% | 1010.9 hPa | 0 mm | - | 1 W/m² | - |
| 1778059687 | 13.33° C | 94% | 1010.9 hPa | 0 mm | - | 0 W/m² | - |
| 1778059081 | 13.33° C | 94% | 1010.9 hPa | 0 mm | - | 0 W/m² | - |
| 1778058173 | 13.33° C | 93% | 1011.1 hPa | 0 mm | - | 0 W/m² | - |
| 1778057870 | 13.33° C | 93% | 1011.2 hPa | 0 mm | - | 0 W/m² | - |
| 1778057263 | 13.33° C | 93% | 1011.4 hPa | 0 mm | - | 0 W/m² | - |
| 1778056354 | 13.33° C | 92% | 1011.4 hPa | 0 mm | - | 0 W/m² | - |
| 1778054840 | 13.33° C | 92% | 1011.4 hPa | 0 mm | - | 0 W/m² | - |
| 1778054536 | 13.33° C | 92% | 1011.4 hPa | 0 mm | - | 0 W/m² | - |
| 1778054234 | 13.89° C | 91% | 1011.3 hPa | 0 mm | - | 0 W/m² | - |
| 1778053930 | 13.89° C | 91% | 1011.2 hPa | 0 mm | - | 0 W/m² | - |
| 1778053325 | 13.89° C | 91% | 1011.5 hPa | 0 mm | - | 0 W/m² | - |
| 1778052411 | 13.89° C | 91% | 1011.6 hPa | 0 mm | - | 0 W/m² | - |
| 1778052109 | 13.89° C | 91% | 1011.7 hPa | 0 mm | - | 0 W/m² | - |
| 1778051806 | 13.89° C | 90% | 1011.6 hPa | 0 mm | - | 0 W/m² | - |
| 1778051504 | 13.89° C | 90% | 1011.7 hPa | 0 mm | - | 0 W/m² | - |
| 1778050596 | 13.89° C | 90% | 1011.8 hPa | 0 mm | - | 0 W/m² | - |
* Rain latest hour (hover to see other rain measurements)
** Current wind speed in m/s (hover to see current wind gust speed)